TimeEST,TemperatureF,Dew PointF,Humidity,Sea Level PressureIn,VisibilityMPH,Wind Direction,Wind SpeedMPH,Gust SpeedMPH,PrecipitationIn,Events,Conditions,WindDirDegrees,DateUTC
12:15 AM,45.9,24.8,44,30.25,10.0,NNE,4.6,-,N/A,,Clear,30,2013-11-11 05:15:00
12:35 AM,45.0,24.3,44,30.25,10.0,NE,3.5,-,N/A,,Clear,50,2013-11-11 05:35:00
12:55 AM,44.2,23.9,45,30.25,10.0,NE,3.5,-,N/A,,Clear,40,2013-11-11 05:55:00
1:15 AM,43.7,23.7,45,30.26,10.0,NE,3.5,-,N/A,,Clear,50,2013-11-11 06:15:00
1:35 AM,42.8,23.7,47,30.26,10.0,NNE,4.6,-,N/A,,Clear,30,2013-11-11 06:35:00
1:55 AM,42.8,23.4,46,30.26,10.0,NE,4.6,-,N/A,,Clear,50,2013-11-11 06:55:00
2:15 AM,41.9,23.0,47,30.26,10.0,NE,5.8,-,N/A,,Clear,40,2013-11-11 07:15:00
2:35 AM,43.0,22.8,45,30.26,10.0,NNE,5.8,-,N/A,,Clear,20,2013-11-11 07:35:00
2:55 AM,42.4,23.0,46,30.25,10.0,NNE,6.9,-,N/A,,Clear,20,2013-11-11 07:55:00
3:15 AM,41.7,22.6,47,30.26,10.0,NE,4.6,-,N/A,,Clear,40,2013-11-11 08:15:00
3:35 AM,40.5,23.0,50,30.26,10.0,NNE,6.9,-,N/A,,Clear,20,2013-11-11 08:35:00
3:55 AM,39.4,23.5,53,30.25,10.0,NE,8.1,-,N/A,,Clear,40,2013-11-11 08:55:00
4:15 AM,40.6,23.0,49,30.26,10.0,ENE,3.5,-,N/A,,Clear,60,2013-11-11 09:15:00
4:35 AM,40.3,22.8,50,30.27,10.0,NE,4.6,-,N/A,,Clear,50,2013-11-11 09:35:00
4:55 AM,39.4,22.8,52,30.27,10.0,ENE,5.8,-,N/A,,Clear,60,2013-11-11 09:55:00
5:15 AM,39.6,22.8,51,30.27,10.0,ENE,4.6,-,N/A,,Clear,60,2013-11-11 10:15:00
5:35 AM,38.7,23.0,53,30.28,10.0,ENE,4.6,-,N/A,,Clear,60,2013-11-11 10:35:00
5:55 AM,36.0,22.8,59,30.29,10.0,Calm,Calm,-,N/A,,Clear,0,2013-11-11 10:55:00
6:15 AM,33.8,23.4,66,30.29,10.0,Calm,Calm,-,N/A,,Clear,0,2013-11-11 11:15:00
6:35 AM,33.4,23.2,66,30.30,10.0,Calm,Calm,-,N/A,,Clear,0,2013-11-11 11:35:00
6:55 AM,32.2,23.7,71,30.31,10.0,Calm,Calm,-,N/A,,Clear,0,2013-11-11 11:55:00
7:15 AM,32.0,23.4,70,30.32,10.0,Calm,Calm,-,N/A,,Clear,0,2013-11-11 12:15:00
7:35 AM,33.8,24.4,69,30.33,10.0,Calm,Calm,-,N/A,,Clear,0,2013-11-11 12:35:00
7:55 AM,34.7,27.0,73,30.33,10.0,Calm,Calm,-,N/A,,Clear,0,2013-11-11 12:55:00
8:15 AM,39.4,26.8,61,30.34,10.0,Calm,Calm,-,N/A,,Clear,0,2013-11-11 13:15:00
8:35 AM,41.5,26.2,55,30.34,10.0,Calm,Calm,-,N/A,,Clear,0,2013-11-11 13:35:00
8:55 AM,43.7,26.4,51,30.34,10.0,Calm,Calm,-,N/A,,Clear,0,2013-11-11 13:55:00
9:15 AM,45.1,26.2,48,30.35,10.0,East,4.6,-,N/A,,Clear,100,2013-11-11 14:15:00
9:35 AM,47.1,26.6,45,30.34,10.0,Calm,Calm,-,N/A,,Clear,0,2013-11-11 14:35:00
9:55 AM,48.4,26.2,42,30.35,10.0,ENE,3.5,-,N/A,,Clear,60,2013-11-11 14:55:00
10:15 AM,49.1,24.8,39,30.34,10.0,Calm,Calm,-,N/A,,Clear,0,2013-11-11 15:15:00
10:35 AM,50.2,25.0,37,30.34,10.0,Calm,Calm,-,N/A,,Clear,0,2013-11-11 15:35:00
10:55 AM,50.9,23.9,35,30.34,10.0,Calm,Calm,-,N/A,,Clear,0,2013-11-11 15:55:00
11:15 AM,52.7,25.2,34,30.33,10.0,Calm,Calm,-,N/A,,Clear,0,2013-11-11 16:15:00
11:35 AM,51.8,23.2,33,30.32,10.0,Calm,Calm,-,N/A,,Clear,0,2013-11-11 16:35:00
11:55 AM,54.1,24.3,31,30.30,10.0,Calm,Calm,-,N/A,,Clear,0,2013-11-11 16:55:00
12:15 PM,54.1,23.9,31,30.29,10.0,Calm,Calm,-,N/A,,Clear,0,2013-11-11 17:15:00
12:35 PM,55.0,24.3,30,30.28,10.0,Calm,Calm,-,N/A,,Clear,0,2013-11-11 17:35:00
12:55 PM,55.6,24.4,30,30.26,10.0,Calm,Calm,-,N/A,,Clear,0,2013-11-11 17:55:00
1:15 PM,56.5,24.1,29,30.25,10.0,Calm,Calm,-,N/A,,Clear,0,2013-11-11 18:15:00
1:35 PM,56.7,23.2,27,30.23,10.0,Calm,Calm,-,N/A,,Clear,0,2013-11-11 18:35:00
1:55 PM,57.4,23.4,27,30.22,10.0,Calm,Calm,-,N/A,,Clear,0,2013-11-11 18:55:00
2:15 PM,57.7,23.7,27,30.21,10.0,Calm,Calm,-,N/A,,Clear,0,2013-11-11 19:15:00
2:35 PM,59.7,25.9,27,30.21,10.0,ESE,3.5,-,N/A,,Clear,120,2013-11-11 19:35:00
2:55 PM,59.0,25.2,27,30.20,10.0,WSW,3.5,-,N/A,,Clear,240,2013-11-11 19:55:00
3:15 PM,59.0,23.7,26,30.20,10.0,WSW,5.8,-,N/A,,Clear,250,2013-11-11 20:15:00
3:35 PM,59.0,24.3,26,30.20,10.0,SSW,3.5,-,N/A,,Clear,210,2013-11-11 20:35:00
3:55 PM,58.1,24.6,28,30.20,10.0,Calm,Calm,-,N/A,,Clear,0,2013-11-11 20:55:00
4:15 PM,57.9,24.6,28,30.20,10.0,Calm,Calm,-,N/A,,Clear,0,2013-11-11 21:15:00
4:35 PM,57.2,24.8,29,30.19,10.0,Calm,Calm,-,N/A,,Clear,0,2013-11-11 21:35:00
4:55 PM,55.8,25.5,31,30.19,10.0,Calm,Calm,-,N/A,,Clear,0,2013-11-11 21:55:00
5:15 PM,54.5,25.5,33,30.19,10.0,Calm,Calm,-,N/A,,Clear,0,2013-11-11 22:15:00
5:35 PM,52.9,25.7,35,30.19,10.0,Calm,Calm,-,N/A,,Clear,0,2013-11-11 22:35:00
5:55 PM,50.5,26.2,39,30.18,10.0,Calm,Calm,-,N/A,,Clear,0,2013-11-11 22:55:00
6:15 PM,49.5,26.2,40,30.18,10.0,Calm,Calm,-,N/A,,Clear,0,2013-11-11 23:15:00
6:35 PM,48.6,26.1,42,30.18,10.0,Calm,Calm,-,N/A,,Clear,0,2013-11-11 23:35:00
6:55 PM,46.0,27.0,47,30.18,10.0,Calm,Calm,-,N/A,,Clear,0,2013-11-11 23:55:00
7:15 PM,46.2,27.3,48,30.18,10.0,Calm,Calm,-,N/A,,Clear,0,2013-11-12 00:15:00
7:35 PM,43.0,27.9,55,30.18,10.0,Calm,Calm,-,N/A,,Clear,0,2013-11-12 00:35:00
7:55 PM,40.5,28.8,63,30.18,10.0,SSW,3.5,-,N/A,,Clear,210,2013-11-12 00:55:00
8:15 PM,44.6,28.6,53,30.17,10.0,Calm,Calm,-,N/A,,Clear,0,2013-11-12 01:15:00
8:35 PM,42.8,29.1,58,30.17,10.0,Calm,Calm,-,N/A,,Clear,0,2013-11-12 01:35:00
8:55 PM,42.3,29.3,60,30.16,10.0,SSW,3.5,-,N/A,,Clear,210,2013-11-12 01:55:00
9:15 PM,40.6,29.3,64,30.16,10.0,SW,3.5,-,N/A,,Clear,220,2013-11-12 02:15:00
9:35 PM,42.1,29.3,61,30.16,10.0,SW,3.5,-,N/A,,Clear,220,2013-11-12 02:35:00
9:55 PM,42.8,29.1,58,30.16,10.0,Calm,Calm,-,N/A,,Clear,0,2013-11-12 02:55:00
10:15 PM,41.5,29.3,62,30.16,10.0,SW,3.5,-,N/A,,Clear,230,2013-11-12 03:15:00
10:35 PM,42.6,29.1,59,30.16,10.0,Calm,Calm,-,N/A,,Clear,0,2013-11-12 03:35:00
10:55 PM,39.4,29.1,67,30.16,10.0,Calm,Calm,-,N/A,,Clear,0,2013-11-12 03:55:00
11:15 PM,36.3,29.7,77,30.15,10.0,SW,3.5,-,N/A,,Clear,220,2013-11-12 04:15:00
11:35 PM,35.6,30.2,81,30.14,10.0,SW,3.5,-,N/A,,Clear,220,2013-11-12 04:35:00
11:55 PM,36.7,30.0,77,30.13,10.0,Calm,Calm,-,N/A,,Clear,0,2013-11-12 04:55:00